Погода в Радостном

Украина / Одесская область     46°59′59″N   30°20′22″E
темп.,
°C
ветер,
м/с
пор.,
м/с
влажн.,
%
обл.,
%
осадки,
мм/ч
давл.,
гПа
погр.,
м
17 августа, ср
ср1700:00+22з017969 2.1 100825
03:00+22зюз1176100 2.1 100814
06:00+22всв1175100 0.0 100811
09:00+22ссв227684 0.3 1008106
12:00+28с235134 0.0 10081317
15:00+28ссз2250100 0.2 1007847
18:00+24всв347596 6.1 1008174
21:00+20ююз228298 7.7 101063
18 августа, чт
чт1800:00+21ю0183100 1.1 100919
03:00+21з228692 1.1 100832
06:00+19сз33886 0.0 100853
09:00+23ссз337166 0.0 1009445
12:00+27ссз335579 0.6 10091221
15:00+29св344699 2.3 10081619
18:00+29ссз344596 0.0 10081082
21:00+24ссз346496 1.1 100972
19 августа, пт
пт1900:00+22ссз45742 0.5 100989
03:00+22ссз45700 0.5 100983
06:00+20ссз46710 0.0 1009112
09:00+25с57520 0.0 1010379
12:00+31с44360 0.0 10101351
15:00+33ссв33300 0.0 10092117
18:00+33с33290 0.0 10092370
21:00+27ссв11410 0.0 100912
20 августа, сб
сб2000:00+25ссв33480 0.0 101039
03:00+23ссв22590 0.0 101026
06:00+22св33630 0.0 101040
09:00+27св45510 0.0 1011445
12:00+32всв43380 0.0 10111636
15:00+35ссв33250 0.0 10102928
18:00+34в432819 0.0 10091973
21:00+27ююв484962 0.0 1010193
21 августа, вс
вс2100:00+26ююв12555 0.0 101087
03:00+23ююв126610 0.4 101121
06:00+22в22711 0.1 101119
09:00+27в45540 0.1 1011508
12:00+31в44402 0.0 10101827
15:00+33в3331100 0.0 10092951
18:00+31в773512 0.1 10081474
21:00+25св47556 0.8 1009123